EHI
0 0 0 0 0 0 0 0 0 0 0 0 0 0 0 0 0 0 0 0 0 0 0 0 0 0 1 2 5 10 9 3 0 0 4 15 22 21
0 0 0 0 0 0 0 0 0 0 0 0 0 0 0 0 0 0 0 0 0 0 0 0 0 0 0 1 2 4 4 1 0 0 2 8 12 10
0 0 0 0 0 0 0 0 0 0 0 0 0 0 0 0 0 0 0 0 0 0 0 0 0 0 0 0 0 0 0 0 0 0 0 2 2 1
0 0 0 0 0 0 0 0 0 0 0 0 0 0 0 0 0 0 0 0 0 0 0 0 0 0 0 0 0 0 0 0 0 0 0 0 0 0
0 0 0 0 0 0 0 0 0 0 0 0 0 0 0 0 0 0 0 0 0 0 0 0 0 0 0 0 0 0 0 0 0 0 0 0 0 0
0 0 0 0 0 0 0 0 0 0 0 0 0 0 0 0 0 0 0 0 0 0 0 0 0 0 0 0 0 0 0 0 0 0 0 0 0 0
0 0 0 0 0 0 0 0 0 0 0 0 0 0 0 0 0 0 0 0 0 0 0 0 0 0 0 0 0 0 0 0 0 0 0 0 0 0
0 0 0 0 0 0 0 0 0 0 0 0 0 0 0 0 0 0 0 0 0 0 0 0 0 0 0 0 0 0 0 0 0 0 0 0 0 0
0 0 0 0 0 0 0 0 0 0 0 0 0 0 0 0 0 0 0 0 0 0 0 0 0 0 0 0 0 0 0 0 0 0 0 0 0 0
0 0 0 0 0 0 0 0 0 0 0 0 0 0 0 0 0 0 0 0 0 0 0 0 0 0 0 0 0 0 0 0 0 0 0 0 0 0
0 0 0 0 0 0 0 0 0 0 0 0 0 0 0 0 0 0 0 0 0 0 0 0 0 0 0 0 0 0 0 0 0 0 0 0 0 0
0 0 0 0 0 0 0 0 0 0 0 0 0 0 0 0 0 0 0 0 0 0 0 0 0 0 0 0 0 0 0 0 0 0 0 0 0 0
0 0 0 0 0 0 0 0 0 0 0 0 0 0 0 0 0 0 0 0 0 0 0 0 0 0 0 0 0 0 0 0 0 0 0 0 0 0
0 0 0 0 0 0 0 0 0 0 0 0 0 0 0 0 0 0 0 0 0 0 0 0 0 0 0 0 0 0 0 0 0 0 0 0 0 0
0 0 0 0 0 0 0 0 0 0 0 0 0 0 0 0 0 0 0 0 0 0 0 0 0 0 0 0 0 0 0 0 0 0 0 0 0 0
0 0 0 0 0 0 0 0 0 0 0 0 0 0 0 0 0 0 0 0 0 0 0 0 0 0 0 0 0 0 0 0 0 0 0 0 0 0
0 0 0 0 0 0 0 0 0 0 0 0 0 0 0 0 0 0 0 0 0 0 0 0 0 0 0 0 0 0 0 0 0 0 0 0 0 0
0 0 0 0 0 0 0 0 0 0 0 0 0 0 0 0 0 0 0 0 0 0 0 0 0 0 0 0 0 0 0 0 0 0 0 0 0 0
0 0 0 0 0 0 0 0 0 0 0 0 0 0 0 0 0 0 0 0 0 0 0 0 0 0 0 0 0 0 0 0 0 0 0 0 0 0
0 0 0 0 0 0 0 0 0 0 0 0 0 0 0 0 0 0 0 0 0 0 0 0 0 0 0 0 0 0 0 0 0 0 0 0 0 0
0 0 0 0 0 0 0 0 0 0 0 0 0 0 0 0 0 0 0 0 0 0 0 0 0 0 0 0 0 0 0 0 0 0 0 0 0 0
0 0 0 0 0 0 0 0 0 0 0 0 0 0 0 0 0 0 0 0 0 0 0 0 0 0 0 0 0 0 0 0 0 0 0 0 0 0
0 0 0 0 0 0 0 0 0 0 0 0 0 0 0 0 0 0 0 0 0 0 0 0 0 0 0 0 0 0 0 0 0 0 0 0 0 0
Wind_Speed
9 9 9 10 10 10 10 10 10 10 10 7 5 4 3 4 7 6 5 11 13 13 12 13 15 16 18 20 21 23 23 21 20 20 20 19 19 18
8 10 11 9 10 10 9 9 10 11 10 6 5 5 4 2 7 6 7 11 14 15 15 14 14 15 17 19 20 22 23 23 23 23 23 21 20 20
9 11 13 13 10 9 9 8 8 9 11 9 7 6 5 4 2 3 4 5 6 14 16 15 15 15 16 18 20 22 23 24 24 24 24 23 24 23
10 11 12 11 13 11 9 9 7 7 8 9 7 5 5 3 3 3 3 4 4 10 14 14 15 15 16 17 19 21 22 23 23 22 23 25 25 24
9 10 12 12 12 11 11 8 6 6 5 6 6 5 4 3 3 2 3 3 3 5 9 11 13 14 15 16 17 20 22 23 22 22 24 25 25 25
8 9 11 12 12 12 9 8 7 5 5 5 5 5 4 4 3 3 3 2 3 3 5 6 9 12 14 17 18 19 20 22 23 24 24 23 22 22
8 9 11 15 18 14 11 10 9 6 4 4 4 4 4 3 4 3 4 4 3 3 6 5 7 7 9 16 20 23 24 25 26 26 25 24 21 20
9 10 12 14 18 21 23 22 20 13 8 5 3 3 3 3 3 4 5 7 4 3 6 6 6 8 7 8 19 26 27 28 28 27 26 25 23 21
9 9 11 15 17 13 17 20 20 24 22 11 8 6 5 4 3 5 7 8 6 6 8 8 6 8 7 12 23 26 27 27 27 26 25 24 22 21
10 10 11 13 16 17 14 14 14 16 19 13 11 11 11 8 5 4 4 6 7 5 6 9 6 7 7 9 20 23 25 25 25 24 24 23 21 20
11 13 13 12 24 25 16 14 14 14 18 24 24 23 25 26 16 2 5 10 10 4 4 7 7 7 8 8 13 23 24 24 24 24 23 22 21 18
9 11 20 21 25 24 14 13 14 14 14 16 18 21 19 21 25 12 3 6 9 5 2 5 7 7 7 6 8 9 14 21 23 22 20 19 17 9
9 8 11 25 26 26 21 14 18 14 12 13 13 14 14 14 16 15 13 6 6 6 2 4 6 5 7 5 6 7 8 9 10 12 14 15 14 10
8 7 11 24 25 26 20 23 25 18 10 11 12 13 14 13 12 13 15 14 13 11 7 5 6 6 8 7 6 5 6 6 7 7 6 11 13 13
9 18 20 23 20 17 24 26 19 12 11 12 12 12 11 12 11 10 11 13 17 17 14 12 9 7 6 8 8 6 5 5 5 5 5 5 4 4
9 14 19 20 17 18 18 15 12 13 12 11 10 10 10 11 12 11 11 10 12 14 17 17 13 11 10 10 9 8 6 6 4 5 5 4 4 3
8 7 8 9 10 10 10 11 11 11 11 11 11 10 11 11 11 10 10 10 11 12 11 12 14 16 16 12 9 9 9 7 5 4 4 3 2 2
11 7 8 9 10 10 9 9 9 10 10 10 10 10 10 9 9 9 9 10 11 10 10 8 6 7 10 13 15 9 8 7 5 4 3 3 2 3
7 5 5 6 6 6 6 6 6 7 7 7 8 8 8 8 8 9 9 9 10 10 10 9 8 6 8 8 8 11 6 5 4 3 3 3 2 1
3 3 4 4 4 4 5 5 4 5 5 5 5 6 7 7 7 7 8 9 9 9 9 10 10 8 6 6 5 4 9 5 4 3 2 2 2 4
3 3 3 3 3 3 3 4 4 4 4 4 4 5 5 5 6 7 7 12 10 8 9 7 6 9 4 5 6 4 3 6 4 2 2 2 2 2
3 3 3 3 2 2 2 3 3 3 3 3 3 3 4 4 4 5 5 5 5 5 5 4 5 6 5 6 5 3 2 3 3 1 2 3 1 0
3 3 3 3 3 2 2 2 3 2 2 2 2 2 3 3 3 3 4 4 4 4 4 4 4 4 4 3 3 2 2 2 2 2 2 3 5 8
Wind_Direction
311 313 309 301 290 272 263 252 250 265 275 279 283 276 236 193 191 187 193 202 207 214 217 213 208 204 202 199 195 193 190 185 181 179 180 178 170 159
317 320 315 306 301 290 271 258 244 247 260 273 279 307 320 267 198 186 199 204 208 212 218 216 212 209 204 199 195 192 188 183 180 181 181 174 159 146
321 322 318 314 309 303 290 272 255 242 250 262 271 283 299 299 254 204 199 200 204 211 216 217 213 210 207 201 195 191 187 182 180 181 179 162 150 143
317 320 319 317 314 306 298 286 273 258 252 258 263 267 267 270 260 228 210 196 191 203 208 212 212 209 205 201 195 189 181 176 173 172 161 150 146 142
310 318 320 319 317 313 307 301 289 276 265 261 262 261 259 251 249 235 201 176 170 178 191 199 202 200 197 190 186 178 171 165 159 152 146 143 141 139
313 324 326 324 326 326 322 323 314 298 282 264 255 252 247 241 213 199 181 162 149 136 128 134 147 156 164 163 158 152 147 142 139 135 133 130 129 130
335 342 340 348 356 357 359 0 356 349 332 301 269 252 236 218 210 180 173 146 123 129 119 112 112 114 122 127 125 126 124 123 122 121 118 114 112 112
3 0 354 1 13 9 13 16 18 18 8 352 318 281 263 242 220 189 168 158 151 151 123 105 101 104 104 109 120 119 118 116 115 114 112 109 107 107
15 14 13 10 25 14 13 17 16 21 26 21 9 1 348 325 283 211 187 167 143 148 130 108 93 97 94 113 116 116 116 116 116 116 115 114 113 112
22 25 22 14 26 25 14 18 17 17 18 22 20 12 7 353 310 258 188 135 109 112 124 113 96 85 83 102 114 116 117 118 119 120 120 119 119 117
23 23 26 22 28 30 19 18 19 15 14 20 24 24 20 19 17 12 167 155 140 104 57 102 109 88 62 54 98 111 113 116 118 121 122 121 119 113
23 14 24 31 29 33 25 18 24 15 11 12 17 18 19 19 23 21 358 152 137 115 47 108 121 109 85 39 46 80 100 108 112 115 117 118 119 114
28 16 19 29 30 32 32 27 29 26 16 17 18 17 17 20 22 21 22 40 99 93 57 104 109 91 102 100 52 50 77 92 95 100 102 103 107 115
25 18 24 32 31 31 32 31 30 28 22 23 24 21 17 15 16 23 31 43 52 62 47 65 98 114 118 108 103 79 69 77 90 92 87 91 89 94
19 27 30 33 31 27 28 29 27 26 24 27 26 22 17 13 14 19 26 43 51 48 44 53 83 97 97 118 124 125 102 80 85 96 93 89 85 86
21 22 26 28 31 28 28 26 22 26 27 25 24 21 19 21 23 21 26 31 51 50 44 48 57 78 93 98 109 113 110 118 109 95 95 91 88 85
28 17 18 20 23 23 24 24 23 21 25 22 22 23 26 28 29 28 32 43 54 57 53 53 60 67 68 76 93 96 100 96 90 82 90 95 96 115
33 23 25 22 21 19 19 19 20 22 22 23 23 23 25 28 31 31 39 46 52 49 45 43 62 77 76 56 46 87 94 97 91 76 73 90 76 54
28 15 16 16 14 12 11 11 15 16 15 19 21 18 21 27 34 36 38 47 52 50 42 34 32 62 88 92 49 41 74 82 85 78 67 72 75 346
7 8 6 5 5 5 4 3 3 10 11 14 17 16 20 26 33 35 39 46 51 52 50 43 41 45 65 89 102 69 54 64 66 69 52 33 341 308
346 349 349 352 354 356 355 357 357 2 11 13 19 19 19 26 31 31 38 52 55 52 54 43 27 36 43 67 84 78 50 65 79 88 71 36 7 354
322 327 327 330 334 339 342 348 351 356 9 19 19 20 21 28 33 36 38 44 46 49 54 43 26 37 48 71 80 76 54 18 1 321 218 204 151 63
301 299 300 307 310 315 330 340 343 341 356 9 16 23 25 29 29 34 36 44 48 44 44 42 37 44 50 63 72 63 42 22 17 13 340 301 271 267